Location: Demmingen
(48.6757°N, 10.4375°E)
Time: 08:29:16
(UTC+00:00)

Resurs 1-4 Rocket - Pass Details

Date: 23 May 2024
Orbit: 798 x 813 km, 98.7° (Epoch: 15 June)

Event Time Altitude Azimuth Distance (km) Brightness Sun altitude
Rises 02:05:10 0° 10° (N) 3,319 6.4 -11.0°
Reaches altitude 10° 02:07:34 10° 4° (N) 2,384 5.4 -10.7°
Maximum altitude 02:12:34 45° 293° (WNW) 1,076 2.6 -10.2°
Enters shadow 02:17:04 12° 223° (SW) 2,203 3.7 -9.7°
